Simultaneous Nadir Overpasses (SNOs) Predictions

Prediction of SNOs between METOP-A and NOAA-19 Satellite Orbit:

Table of predicted SNOs for the next 14.0 days since TLE Epoch: 5/29/2016
Index Date (METOP-A) Time (METOP-A) Lat,Lon (METOP-A) SZA (METOP-A ) Date (NOAA-19) Time (NOAA-19) Lat,Lon (NOAA-19) SZA (NOAA-19 ) Distance(km) Time Diff (sec)
1 05/30/2016 05:57:20 76.12, 90.97 54.21 05/30/2016 05:56:05 76.13, 90.81 54.22 4.43 75
2 05/30/2016 06:48:02 -76.08,-101.84 125.84 05/30/2016 06:47:05 -76.08,-101.74 125.85 2.70 57
3 05/30/2016 07:38:42 76.10, 65.57 54.18 05/30/2016 07:38:06 76.08, 65.48 54.16 3.12 36
4 05/30/2016 08:29:24 -76.06,-127.24 125.87 05/30/2016 08:29:07 -76.07,-127.23 125.86 1.23 17
5 05/30/2016 09:20:05 76.04, 40.01 54.10 05/30/2016 09:20:07 76.03, 40.15 54.10 3.86 2
6 05/30/2016 10:10:46 -76.04,-152.65 125.90 05/30/2016 10:11:08 -76.03,-152.57 125.92 2.82 22
7 05/30/2016 11:01:27 76.02, 14.60 54.07 05/30/2016 11:02:09 76.03, 14.65 54.09 2.12 42
8 05/30/2016 11:52:08 -76.02,-178.05 125.93 05/30/2016 11:53:10 -76.02,-178.07 125.93 0.47 62
9 05/30/2016 12:42:55 75.72, -11.72 53.76 05/30/2016 12:44:04 75.71, -9.74 53.77 54.46 69
10 06/09/2016 21:02:27 76.44,-134.20 53.36 06/09/2016 21:01:18 76.44,-136.40 53.35 57.45 69
11 06/09/2016 21:53:15 -76.14, 32.06 126.96 06/09/2016 21:52:10 -76.15, 31.97 126.95 2.54 65
12 06/09/2016 22:43:56 76.10,-160.74 53.01 06/09/2016 22:43:13 76.13,-160.73 53.03 2.89 43
13 06/09/2016 23:34:37 -76.12, 6.65 126.98 06/09/2016 23:34:11 -76.10, 6.63 127.00 2.42 26
14 06/10/2016 00:25:18 76.08, 173.85 52.98 06/10/2016 00:25:14 76.08, 173.93 52.98 2.15 4
15 06/10/2016 01:15:59 -76.10, -18.75 127.01 06/10/2016 01:16:13 -76.10, -18.87 127.01 3.12 14
16 06/10/2016 02:06:40 76.07, 148.45 52.96 06/10/2016 02:07:16 76.08, 148.44 52.97 1.62 36
17 06/10/2016 02:57:22 -76.04, -44.31 127.08 06/10/2016 02:58:14 -76.05, -44.21 127.06 3.33 52
18 06/10/2016 03:48:03 76.00, 122.89 52.89 06/10/2016 03:49:17 76.03, 123.10 52.92 6.85 74




NCC Satellite Simultaneous Nadir Overpasses (
